Time,TemperatureF,DewpointF,PressureIn,WindDirection,WindDirectionDegrees,WindSpeedMPH,WindSpeedGustMPH,Humidity,HourlyPrecipIn,Conditions,Clouds,dailyrainin,SolarRadiationWatts/m^2,SoftwareType,DateUTC
2013-09-10 00:02:00,83.6,66.2,29.77,SSW,209,1.5,5.8,56,0.00,CLR,,0.00,0.0,WeatherDisplay:10.37,2013-09-10 05:02:00,
2013-09-10 00:07:00,83.6,66.2,29.77,SW,227,0.6,8.1,56,0.00,CLR,,0.00,0.0,WeatherDisplay:10.37,2013-09-10 05:07:00,
2013-09-10 00:12:00,83.6,66.2,29.77,SW,234,0.6,4.4,56,0.00,CLR,,0.00,0.0,WeatherDisplay:10.37,2013-09-10 05:12:00,
2013-09-10 00:17:00,83.4,66.1,29.77,South,189,0.1,5.8,56,0.00,CLR,,0.00,0.0,WeatherDisplay:10.37,2013-09-10 05:17:00,
2013-09-10 00:22:00,83.2,65.9,29.77,South,172,2.2,5.5,56,0.00,CLR,,0.00,0.0,WeatherDisplay:10.37,2013-09-10 05:22:00,
2013-09-10 00:27:00,83.0,66.2,29.77,South,188,1.7,5.8,57,0.00,CLR,,0.00,0.0,WeatherDisplay:10.37,2013-09-10 05:27:00,
2013-09-10 00:32:00,83.0,65.7,29.77,SW,234,2.0,9.2,56,0.00,CLR,,0.00,0.0,WeatherDisplay:10.37,2013-09-10 05:32:00,
2013-09-10 00:37:00,83.0,65.7,29.77,SSW,193,2.8,10.4,56,0.00,CLR,,0.00,0.0,WeatherDisplay:10.37,2013-09-10 05:37:00,
2013-09-10 00:42:00,82.8,65.5,29.77,South,186,0.8,3.5,56,0.00,CLR,,0.00,0.0,WeatherDisplay:10.37,2013-09-10 05:42:00,
2013-09-10 00:47:00,82.6,65.8,29.77,South,173,0.0,1.1,57,0.00,CLR,,0.00,0.0,WeatherDisplay:10.37,2013-09-10 05:47:00,
2013-09-10 00:52:00,82.4,65.1,29.77,SSW,207,0.0,0.0,56,0.00,CLR,,0.00,0.0,WeatherDisplay:10.37,2013-09-10 05:52:00,
2013-09-10 00:57:00,82.4,65.6,29.77,SSW,205,0.1,1.2,57,0.00,CLR,,0.00,0.0,WeatherDisplay:10.37,2013-09-10 05:57:00,
2013-09-10 01:02:00,82.2,65.4,29.77,South,183,0.1,1.2,57,0.00,CLR,,0.00,0.0,WeatherDisplay:10.37,2013-09-10 06:02:00,
2013-09-10 01:07:00,82.0,65.3,29.77,South,189,0.0,0.0,57,0.00,CLR,,0.00,0.0,WeatherDisplay:10.37,2013-09-10 06:07:00,
2013-09-10 01:12:00,82.0,65.3,29.77,South,172,2.5,4.6,57,0.00,CLR,,0.00,0.0,WeatherDisplay:10.37,2013-09-10 06:12:00,
2013-09-10 01:17:00,82.0,65.3,29.77,South,184,0.4,3.5,57,0.00,CLR,,0.00,0.0,WeatherDisplay:10.37,2013-09-10 06:17:00,
2013-09-10 01:22:00,82.0,65.3,29.77,South,184,1.9,5.8,57,0.00,CLR,,0.00,0.0,WeatherDisplay:10.37,2013-09-10 06:22:00,
2013-09-10 01:27:00,82.0,65.3,29.77,SSW,198,0.0,1.2,57,0.00,CLR,,0.00,0.0,WeatherDisplay:10.37,2013-09-10 06:27:00,
2013-09-10 01:32:00,81.8,65.1,29.77,South,188,1.0,4.6,57,0.00,CLR,,0.00,0.0,WeatherDisplay:10.37,2013-09-10 06:32:00,
2013-09-10 01:37:00,81.8,65.6,29.77,SSW,196,0.1,1.1,58,0.00,CLR,,0.00,0.0,WeatherDisplay:10.37,2013-09-10 06:37:00,
2013-09-10 01:42:00,81.6,64.9,29.77,SSW,196,0.5,4.6,57,0.00,CLR,,0.00,0.0,WeatherDisplay:10.37,2013-09-10 06:42:00,
2013-09-10 01:47:00,81.6,65.4,29.77,SSW,200,0.9,5.8,58,0.00,CLR,,0.00,0.0,WeatherDisplay:10.37,2013-09-10 06:47:00,
2013-09-10 01:52:00,81.8,65.1,29.77,SSE,155,2.2,5.8,57,0.00,CLR,,0.00,0.0,WeatherDisplay:10.37,2013-09-10 06:52:00,
2013-09-10 01:57:00,81.6,64.9,29.77,WSW,239,0.6,4.6,57,0.00,CLR,,0.00,0.0,WeatherDisplay:10.37,2013-09-10 06:57:00,
2013-09-10 02:02:00,81.6,64.9,29.78,SSW,195,2.7,5.8,57,0.00,CLR,,0.00,0.0,WeatherDisplay:10.37,2013-09-10 07:02:00,
2013-09-10 02:07:00,81.4,65.2,29.78,SSW,202,0.9,4.6,58,0.00,CLR,,0.00,0.0,WeatherDisplay:10.37,2013-09-10 07:07:00,
2013-09-10 02:12:00,81.4,65.2,29.78,SSW,207,2.4,6.6,58,0.00,CLR,,0.00,0.0,WeatherDisplay:10.37,2013-09-10 07:12:00,
2013-09-10 02:17:00,81.6,64.9,29.78,SSW,198,2.3,8.1,57,0.00,CLR,,0.00,0.0,WeatherDisplay:10.37,2013-09-10 07:17:00,
2013-09-10 02:22:00,81.4,64.7,29.78,South,175,2.7,9.2,57,0.00,CLR,,0.00,0.0,WeatherDisplay:10.37,2013-09-10 07:22:00,
2013-09-10 02:27:00,81.4,64.7,29.78,South,177,1.7,8.1,57,0.00,CLR,,0.00,0.0,WeatherDisplay:10.37,2013-09-10 07:27:00,
2013-09-10 02:32:00,81.2,65.0,29.78,South,178,3.5,11.0,58,0.00,CLR,,0.00,0.0,WeatherDisplay:10.37,2013-09-10 07:32:00,
2013-09-10 02:37:00,81.2,64.5,29.78,SSW,201,4.5,11.5,57,0.00,CLR,,0.00,0.0,WeatherDisplay:10.37,2013-09-10 07:37:00,
2013-09-10 02:42:00,81.2,64.5,29.78,SSE,166,3.3,8.1,57,0.00,CLR,,0.00,0.0,WeatherDisplay:10.37,2013-09-10 07:42:00,
2013-09-10 02:47:00,81.2,64.5,29.79,SSW,200,1.5,12.7,57,0.00,CLR,,0.00,0.0,WeatherDisplay:10.37,2013-09-10 07:47:00,
2013-09-10 02:52:00,81.2,64.5,29.79,SSW,200,0.1,1.2,57,0.00,CLR,,0.00,0.0,WeatherDisplay:10.37,2013-09-10 07:52:00,
2013-09-10 02:57:00,81.1,64.4,29.79,SSW,192,2.5,4.6,57,0.00,CLR,,0.00,0.0,WeatherDisplay:10.37,2013-09-10 07:57:00,
2013-09-10 03:02:00,80.9,64.7,29.79,SSW,196,0.7,3.5,58,0.00,CLR,,0.00,0.0,WeatherDisplay:10.37,2013-09-10 08:02:00,
2013-09-10 03:07:00,80.7,64.5,29.79,South,169,0.3,2.3,58,0.00,CLR,,0.00,0.0,WeatherDisplay:10.37,2013-09-10 08:07:00,
2013-09-10 03:12:00,80.7,64.5,29.79,SSW,213,1.0,6.9,58,0.00,CLR,,0.00,0.0,WeatherDisplay:10.37,2013-09-10 08:12:00,
2013-09-10 03:17:00,80.5,64.4,29.79,South,186,0.1,1.1,58,0.00,CLR,,0.00,0.0,WeatherDisplay:10.37,2013-09-10 08:17:00,
2013-09-10 03:22:00,80.5,64.4,29.79,South,178,3.7,9.2,58,0.00,CLR,,0.00,0.0,WeatherDisplay:10.37,2013-09-10 08:22:00,
2013-09-10 03:27:00,80.5,64.4,29.79,South,184,1.0,8.1,58,0.00,CLR,,0.00,0.0,WeatherDisplay:10.37,2013-09-10 08:27:00,
2013-09-10 03:32:00,80.3,64.2,29.79,South,173,0.0,1.2,58,0.00,CLR,,0.00,0.0,WeatherDisplay:10.37,2013-09-10 08:32:00,
2013-09-10 03:37:00,80.3,64.2,29.79,SSW,197,3.8,5.8,58,0.00,CLR,,0.00,0.0,WeatherDisplay:10.37,2013-09-10 08:37:00,
2013-09-10 03:42:00,80.3,64.2,29.79,SSW,210,0.1,4.6,58,0.00,CLR,,0.00,0.0,WeatherDisplay:10.37,2013-09-10 08:42:00,
2013-09-10 03:47:00,80.3,64.2,29.79,South,190,0.1,1.1,58,0.00,CLR,,0.00,0.0,WeatherDisplay:10.37,2013-09-10 08:47:00,
2013-09-10 03:52:00,80.3,63.7,29.79,SSW,195,1.3,4.6,57,0.00,CLR,,0.00,0.0,WeatherDisplay:10.37,2013-09-10 08:52:00,
2013-09-10 03:57:00,80.3,63.7,29.79,SW,216,2.1,3.5,57,0.00,CLR,,0.00,0.0,WeatherDisplay:10.37,2013-09-10 08:57:00,
2013-09-10 04:02:00,80.3,64.2,29.79,SSE,147,2.5,6.6,58,0.00,CLR,,0.00,0.0,WeatherDisplay:10.37,2013-09-10 09:02:00,
2013-09-10 04:07:00,80.3,63.7,29.79,SSW,209,0.6,4.6,57,0.00,CLR,,0.00,0.0,WeatherDisplay:10.37,2013-09-10 09:07:00,
2013-09-10 04:12:00,80.3,63.7,29.79,SSW,207,0.1,2.3,57,0.00,CLR,,0.00,0.0,WeatherDisplay:10.37,2013-09-10 09:12:00,
2013-09-10 04:17:00,80.1,63.5,29.80,South,187,0.1,1.2,57,0.00,CLR,,0.00,0.0,WeatherDisplay:10.37,2013-09-10 09:17:00,
2013-09-10 04:22:00,80.1,63.5,29.80,SW,221,2.5,6.9,57,0.00,CLR,,0.00,0.0,WeatherDisplay:10.37,2013-09-10 09:22:00,
2013-09-10 04:27:00,80.1,63.5,29.80,SSW,196,4.5,6.6,57,0.00,CLR,,0.00,0.0,WeatherDisplay:10.37,2013-09-10 09:27:00,
2013-09-10 04:32:00,80.1,64.0,29.80,WSW,250,0.0,4.6,58,0.00,CLR,,0.00,0.0,WeatherDisplay:10.37,2013-09-10 09:32:00,
2013-09-10 04:37:00,79.9,63.8,29.80,South,180,0.0,4.6,58,0.00,CLR,,0.00,0.0,WeatherDisplay:10.37,2013-09-10 09:37:00,
2013-09-10 04:42:00,79.8,63.7,29.80,SSW,200,0.0,2.3,58,0.00,CLR,,0.00,0.0,WeatherDisplay:10.37,2013-09-10 09:42:00,
2013-09-10 04:47:00,79.4,63.8,29.80,SW,215,0.7,3.3,59,0.00,CLR,,0.00,0.0,WeatherDisplay:10.37,2013-09-10 09:47:00,
2013-09-10 04:52:00,79.4,63.8,29.80,SSE,151,0.8,4.6,59,0.00,CLR,,0.00,0.0,WeatherDisplay:10.37,2013-09-10 09:52:00,
2013-09-10 04:57:00,79.2,63.6,29.80,SSW,196,1.2,5.8,59,0.00,CLR,,0.00,0.0,WeatherDisplay:10.37,2013-09-10 09:57:00,
2013-09-10 05:02:00,79.2,63.6,29.80,South,189,0.1,1.2,59,0.00,CLR,,0.00,0.0,WeatherDisplay:10.37,2013-09-10 10:02:00,
2013-09-10 05:07:00,79.0,63.9,29.80,SSW,205,0.0,0.0,60,0.00,CLR,,0.00,0.0,WeatherDisplay:10.37,2013-09-10 10:07:00,
2013-09-10 05:12:00,78.8,63.7,29.80,South,187,3.6,8.1,60,0.00,CLR,,0.00,0.0,WeatherDisplay:10.37,2013-09-10 10:12:00,
2013-09-10 05:17:00,78.6,63.6,29.80,SW,221,2.8,5.5,60,0.00,CLR,,0.00,0.0,WeatherDisplay:10.37,2013-09-10 10:17:00,
2013-09-10 05:22:00,78.3,63.7,29.80,South,175,0.0,1.2,61,0.00,CLR,,0.00,0.0,WeatherDisplay:10.37,2013-09-10 10:22:00,
2013-09-10 05:27:00,78.1,63.6,29.80,SSW,194,0.1,1.2,61,0.00,CLR,,0.00,0.0,WeatherDisplay:10.37,2013-09-10 10:27:00,
2013-09-10 05:32:00,78.1,64.0,29.81,SW,226,0.1,1.2,62,0.00,CLR,,0.00,0.0,WeatherDisplay:10.37,2013-09-10 10:32:00,
2013-09-10 05:37:00,77.9,63.8,29.81,SSW,192,0.0,3.5,62,0.00,CLR,,0.00,0.0,WeatherDisplay:10.37,2013-09-10 10:37:00,
2013-09-10 05:42:00,77.7,63.6,29.81,SSW,208,1.9,5.8,62,0.00,CLR,,0.00,0.0,WeatherDisplay:10.37,2013-09-10 10:42:00,
2013-09-10 05:47:00,77.6,63.5,29.81,South,182,1.0,4.6,62,0.00,CLR,,0.00,0.0,WeatherDisplay:10.37,2013-09-10 10:47:00,
2013-09-10 05:52:00,77.4,63.8,29.81,SSE,161,0.9,4.4,63,0.00,CLR,,0.00,0.0,WeatherDisplay:10.37,2013-09-10 10:52:00,
2013-09-10 05:57:00,77.2,64.1,29.81,SW,227,0.0,0.0,64,0.00,CLR,,0.00,0.0,WeatherDisplay:10.37,2013-09-10 10:57:00,
2013-09-10 06:02:00,76.8,63.7,29.82,SW,220,0.0,1.2,64,0.00,CLR,,0.00,0.0,WeatherDisplay:10.37,2013-09-10 11:02:00,
2013-09-10 06:07:00,76.7,64.0,29.82,SW,221,0.0,0.0,65,0.00,CLR,,0.00,0.0,WeatherDisplay:10.37,2013-09-10 11:07:00,
2013-09-10 06:12:00,76.7,64.0,29.82,South,175,0.0,0.0,65,0.00,CLR,,0.00,0.0,WeatherDisplay:10.37,2013-09-10 11:12:00,
2013-09-10 06:17:00,76.5,63.9,29.82,South,173,0.6,4.4,65,0.00,CLR,,0.00,0.0,WeatherDisplay:10.37,2013-09-10 11:17:00,
2013-09-10 06:22:00,76.5,64.3,29.82,South,178,0.0,0.0,66,0.00,CLR,,0.00,0.0,WeatherDisplay:10.37,2013-09-10 11:22:00,
2013-09-10 06:27:00,76.3,64.1,29.82,South,178,0.0,0.0,66,0.00,CLR,,0.00,0.0,WeatherDisplay:10.37,2013-09-10 11:27:00,
2013-09-10 06:32:00,76.1,63.9,29.83,South,178,0.0,0.0,66,0.00,CLR,,0.00,0.0,WeatherDisplay:10.37,2013-09-10 11:32:00,
2013-09-10 06:37:00,76.0,63.8,29.83,South,178,0.0,0.0,66,0.00,CLR,,0.00,5.0,WeatherDisplay:10.37,2013-09-10 11:37:00,
2013-09-10 06:42:00,75.8,64.1,29.83,South,178,0.0,0.0,67,0.00,CLR,,0.00,7.0,WeatherDisplay:10.37,2013-09-10 11:42:00,
2013-09-10 06:47:00,75.6,63.9,29.83,South,178,0.0,0.0,67,0.00,CLR,,0.00,11.0,WeatherDisplay:10.37,2013-09-10 11:47:00,
2013-09-10 06:52:00,75.4,64.1,29.83,South,178,0.0,0.0,68,0.00,CLR,,0.00,14.0,WeatherDisplay:10.37,2013-09-10 11:52:00,
2013-09-10 06:57:00,75.4,64.1,29.83,South,178,0.0,0.0,68,0.00,CLR,,0.00,18.0,WeatherDisplay:10.37,2013-09-10 11:57:00,
2013-09-10 07:02:00,75.3,64.0,29.85,South,178,0.0,0.0,68,0.00,CLR,,0.00,21.0,WeatherDisplay:10.37,2013-09-10 12:02:00,
2013-09-10 07:07:00,75.1,64.2,29.85,South,178,0.0,1.2,69,0.00,CLR,,0.00,25.0,WeatherDisplay:10.37,2013-09-10 12:07:00,
2013-09-10 07:12:00,74.9,64.0,29.85,South,178,0.0,0.0,69,0.00,CLR,,0.00,30.0,WeatherDisplay:10.37,2013-09-10 12:12:00,
2013-09-10 07:17:00,74.9,64.0,29.85,South,178,0.0,0.0,69,0.00,CLR,,0.00,37.0,WeatherDisplay:10.37,2013-09-10 12:17:00,
2013-09-10 07:22:00,74.9,64.5,29.85,South,178,0.0,0.0,70,0.00,CLR,,0.00,79.0,WeatherDisplay:10.37,2013-09-10 12:22:00,
2013-09-10 07:27:00,74.9,64.5,29.85,South,178,0.0,0.0,70,0.00,CLR,,0.00,104.0,WeatherDisplay:10.37,2013-09-10 12:27:00,
2013-09-10 07:32:00,75.1,64.2,29.85,South,178,0.0,1.2,69,0.00,CLR,,0.00,121.0,WeatherDisplay:10.37,2013-09-10 12:32:00,
2013-09-10 07:37:00,75.3,64.4,29.85,South,178,0.2,2.3,69,0.00,CLR,,0.00,134.0,WeatherDisplay:10.37,2013-09-10 12:37:00,
2013-09-10 07:42:00,75.3,64.4,29.85,SSW,209,0.9,5.5,69,0.00,CLR,,0.00,148.0,WeatherDisplay:10.37,2013-09-10 12:42:00,
2013-09-10 07:47:00,75.4,64.5,29.86,SSW,209,0.0,0.0,69,0.00,CLR,,0.00,162.0,WeatherDisplay:10.37,2013-09-10 12:47:00,
2013-09-10 07:52:00,75.4,64.5,29.86,SSW,209,0.0,0.0,69,0.00,CLR,,0.00,176.0,WeatherDisplay:10.37,2013-09-10 12:52:00,
2013-09-10 07:57:00,75.6,64.7,29.86,SSE,154,0.0,4.6,69,0.00,CLR,,0.00,193.0,WeatherDisplay:10.37,2013-09-10 12:57:00,
2013-09-10 08:02:00,75.6,64.7,29.86,SSE,157,0.0,0.0,69,0.00,CLR,,0.00,206.0,WeatherDisplay:10.37,2013-09-10 13:02:00,
2013-09-10 08:07:00,75.8,64.9,29.86,SW,235,0.0,0.0,69,0.00,CLR,,0.00,225.0,WeatherDisplay:10.37,2013-09-10 13:07:00,
2013-09-10 08:12:00,76.0,65.1,29.86,SSE,163,0.2,1.2,69,0.00,CLR,,0.00,241.0,WeatherDisplay:10.37,2013-09-10 13:12:00,
2013-09-10 08:17:00,76.1,64.8,29.86,SW,233,0.8,4.6,68,0.00,CLR,,0.00,253.0,WeatherDisplay:10.37,2013-09-10 13:17:00,
2013-09-10 08:22:00,76.3,65.0,29.86,South,184,0.1,1.2,68,0.00,CLR,,0.00,269.0,WeatherDisplay:10.37,2013-09-10 13:22:00,
2013-09-10 08:27:00,76.3,65.0,29.86,WSW,238,2.4,6.6,68,0.00,CLR,,0.00,283.0,WeatherDisplay:10.37,2013-09-10 13:27:00,
2013-09-10 08:32:00,76.7,65.3,29.86,South,188,0.1,1.1,68,0.00,CLR,,0.00,295.0,WeatherDisplay:10.37,2013-09-10 13:32:00,
2013-09-10 08:37:00,76.8,65.0,29.86,WSW,242,0.0,1.2,67,0.00,CLR,,0.00,313.0,WeatherDisplay:10.37,2013-09-10 13:37:00,
2013-09-10 08:42:00,77.0,65.6,29.86,SSW,196,0.0,0.0,68,0.00,CLR,,0.00,329.0,WeatherDisplay:10.37,2013-09-10 13:42:00,
2013-09-10 08:47:00,77.2,65.8,29.86,South,171,0.1,2.3,68,0.00,CLR,,0.00,343.0,WeatherDisplay:10.37,2013-09-10 13:47:00,
2013-09-10 08:52:00,77.4,65.6,29.86,South,180,1.0,4.6,67,0.00,CLR,,0.00,359.0,WeatherDisplay:10.37,2013-09-10 13:52:00,
2013-09-10 08:57:00,77.4,65.6,29.86,WSW,246,0.6,3.5,67,0.00,CLR,,0.00,373.0,WeatherDisplay:10.37,2013-09-10 13:57:00,
2013-09-10 09:02:00,77.6,66.2,29.86,SSW,208,0.0,1.1,68,0.00,CLR,,0.00,390.0,WeatherDisplay:10.37,2013-09-10 14:02:00,
2013-09-10 09:07:00,77.7,65.9,29.86,SSW,213,0.3,2.3,67,0.00,CLR,,0.00,411.0,WeatherDisplay:10.37,2013-09-10 14:07:00,
2013-09-10 09:12:00,77.9,66.1,29.86,SSW,205,0.0,1.2,67,0.00,CLR,,0.00,425.0,WeatherDisplay:10.37,2013-09-10 14:12:00,
2013-09-10 09:17:00,78.1,66.7,29.87,SSW,205,0.0,0.0,68,0.00,CLR,,0.00,441.0,WeatherDisplay:10.37,2013-09-10 14:17:00,
2013-09-10 09:22:00,78.5,66.6,29.87,SE,140,0.7,2.3,67,0.00,CLR,,0.00,429.0,WeatherDisplay:10.37,2013-09-10 14:22:00,
2013-09-10 09:27:00,78.6,66.7,29.87,WSW,240,0.0,1.2,67,0.00,CLR,,0.00,424.0,WeatherDisplay:10.37,2013-09-10 14:27:00,
2013-09-10 09:32:00,78.8,66.5,29.87,South,171,0.0,1.2,66,0.00,CLR,,0.00,413.0,WeatherDisplay:10.37,2013-09-10 14:32:00,
2013-09-10 09:37:00,79.0,66.7,29.87,SSW,207,0.2,1.2,66,0.00,CLR,,0.00,431.0,WeatherDisplay:10.37,2013-09-10 14:37:00,
2013-09-10 09:42:00,79.2,67.3,29.87,WSW,254,0.1,1.2,67,0.00,CLR,,0.00,457.0,WeatherDisplay:10.37,2013-09-10 14:42:00,
2013-09-10 09:47:00,79.4,67.0,29.87,SSE,153,0.0,2.3,66,0.00,CLR,,0.00,494.0,WeatherDisplay:10.37,2013-09-10 14:47:00,
2013-09-10 09:52:00,79.8,67.4,29.87,South,174,0.9,4.6,66,0.00,CLR,,0.00,503.0,WeatherDisplay:10.37,2013-09-10 14:52:00,
2013-09-10 09:57:00,79.8,67.4,29.87,South,170,0.0,5.8,66,0.00,CLR,,0.00,510.0,WeatherDisplay:10.37,2013-09-10 14:57:00,
2013-09-10 10:02:00,80.3,67.5,29.88,SW,219,0.0,1.1,65,0.00,CLR,,0.00,520.0,WeatherDisplay:10.37,2013-09-10 15:02:00,
2013-09-10 10:07:00,80.9,67.6,29.88,WSW,257,0.0,2.3,64,0.00,CLR,,0.00,540.0,WeatherDisplay:10.37,2013-09-10 15:07:00,
2013-09-10 10:12:00,81.2,68.3,29.88,SSE,156,0.0,1.1,65,0.00,CLR,,0.00,548.0,WeatherDisplay:10.37,2013-09-10 15:12:00,
2013-09-10 10:17:00,81.2,67.4,29.88,SSW,195,0.0,1.2,63,0.00,CLR,,0.00,563.0,WeatherDisplay:10.37,2013-09-10 15:17:00,
2013-09-10 10:22:00,81.4,67.6,29.88,South,183,0.0,3.5,63,0.00,CLR,,0.00,571.0,WeatherDisplay:10.37,2013-09-10 15:22:00,
2013-09-10 10:27:00,81.8,68.4,29.88,SSW,196,0.6,3.3,64,0.00,CLR,,0.00,596.0,WeatherDisplay:10.37,2013-09-10 15:27:00,
2013-09-10 10:32:00,81.6,67.8,29.88,SSE,158,0.2,2.2,63,0.00,CLR,,0.00,592.0,WeatherDisplay:10.37,2013-09-10 15:32:00,
2013-09-10 10:37:00,82.2,68.3,29.88,SSE,159,0.0,0.0,63,0.00,CLR,,0.00,601.0,WeatherDisplay:10.37,2013-09-10 15:37:00,
2013-09-10 10:42:00,82.6,68.3,29.88,WSW,255,0.0,0.0,62,0.00,CLR,,0.00,606.0,WeatherDisplay:10.37,2013-09-10 15:42:00,
2013-09-10 10:47:00,82.4,68.1,29.88,South,191,0.0,0.0,62,0.00,CLR,,0.00,603.0,WeatherDisplay:10.37,2013-09-10 15:47:00,
2013-09-10 10:52:00,83.0,68.2,29.88,South,191,0.0,0.0,61,0.00,CLR,,0.00,619.0,WeatherDisplay:10.37,2013-09-10 15:52:00,
2013-09-10 10:57:00,83.6,68.7,29.88,SSW,212,0.0,1.2,61,0.00,CLR,,0.00,628.0,WeatherDisplay:10.37,2013-09-10 15:57:00,
2013-09-10 11:02:00,84.0,68.1,29.88,SW,214,0.3,2.3,59,0.00,CLR,,0.00,649.0,WeatherDisplay:10.37,2013-09-10 16:02:00,
2013-09-10 11:07:00,84.3,69.4,29.88,South,173,0.0,0.0,61,0.00,CLR,,0.00,647.0,WeatherDisplay:10.37,2013-09-10 16:07:00,
2013-09-10 11:12:00,84.1,68.7,29.88,South,173,0.4,2.2,60,0.00,CLR,,0.00,633.0,WeatherDisplay:10.37,2013-09-10 16:12:00,
2013-09-10 11:17:00,84.0,68.6,29.87,SSW,198,0.2,2.2,60,0.00,CLR,,0.00,573.0,WeatherDisplay:10.37,2013-09-10 16:17:00,
2013-09-10 11:22:00,84.3,69.4,29.87,South,173,1.6,6.6,61,0.00,CLR,,0.00,626.0,WeatherDisplay:10.37,2013-09-10 16:22:00,
2013-09-10 11:27:00,84.3,69.9,29.87,South,173,0.1,1.2,62,0.00,CLR,,0.00,691.0,WeatherDisplay:10.37,2013-09-10 16:27:00,
2013-09-10 11:32:00,84.0,69.1,29.87,South,176,0.6,2.3,61,0.00,CLR,,0.00,694.0,WeatherDisplay:10.37,2013-09-10 16:32:00,
2013-09-10 11:37:00,84.5,68.6,29.87,SW,229,0.5,3.3,59,0.00,CLR,,0.00,708.0,WeatherDisplay:10.37,2013-09-10 16:37:00,
2013-09-10 11:42:00,84.5,69.1,29.87,SW,215,0.0,2.3,60,0.00,CLR,,0.00,714.0,WeatherDisplay:10.37,2013-09-10 16:42:00,
2013-09-10 11:47:00,84.9,68.5,29.87,WSW,240,0.3,1.2,58,0.00,CLR,,0.00,719.0,WeatherDisplay:10.37,2013-09-10 16:47:00,
2013-09-10 11:52:00,85.1,68.7,29.87,SSW,194,0.6,4.6,58,0.00,CLR,,0.00,724.0,WeatherDisplay:10.37,2013-09-10 16:52:00,
2013-09-10 11:57:00,85.1,69.2,29.87,SSW,199,1.7,6.9,59,0.00,CLR,,0.00,726.0,WeatherDisplay:10.37,2013-09-10 16:57:00,
2013-09-10 12:02:00,85.7,69.7,29.87,South,180,0.2,2.3,59,0.00,CLR,,0.00,724.0,WeatherDisplay:10.37,2013-09-10 17:02:00,
2013-09-10 12:07:00,85.7,69.2,29.87,West,261,0.1,1.2,58,0.00,CLR,,0.00,735.0,WeatherDisplay:10.37,2013-09-10 17:07:00,
2013-09-10 12:12:00,85.5,69.0,29.87,West,280,2.0,6.6,58,0.00,CLR,,0.00,737.0,WeatherDisplay:10.37,2013-09-10 17:12:00,
2013-09-10 12:17:00,85.9,68.9,29.87,South,181,3.8,10.4,57,0.00,CLR,,0.00,740.0,WeatherDisplay:10.37,2013-09-10 17:17:00,
2013-09-10 12:22:00,85.9,68.4,29.87,SSW,198,4.0,11.5,56,0.00,CLR,,0.00,742.0,WeatherDisplay:10.37,2013-09-10 17:22:00,
2013-09-10 12:27:00,86.1,68.6,29.87,South,173,0.0,1.2,56,0.00,CLR,,0.00,749.0,WeatherDisplay:10.37,2013-09-10 17:27:00,
2013-09-10 12:32:00,86.3,68.8,29.87,SW,227,0.1,1.2,56,0.00,CLR,,0.00,747.0,WeatherDisplay:10.37,2013-09-10 17:32:00,
2013-09-10 12:37:00,86.5,68.4,29.87,South,190,3.8,8.1,55,0.00,CLR,,0.00,752.0,WeatherDisplay:10.37,2013-09-10 17:37:00,
2013-09-10 12:42:00,87.4,67.6,29.87,WSW,238,1.7,8.8,52,0.00,CLR,,0.00,747.0,WeatherDisplay:10.37,2013-09-10 17:42:00,
2013-09-10 12:47:00,87.6,67.8,29.87,WNW,282,0.5,2.3,52,0.00,CLR,,0.00,749.0,WeatherDisplay:10.37,2013-09-10 17:47:00,
2013-09-10 12:52:00,87.8,68.0,29.87,South,186,4.0,8.1,52,0.00,CLR,,0.00,751.0,WeatherDisplay:10.37,2013-09-10 17:52:00,
2013-09-10 12:57:00,87.8,68.0,29.87,SSE,161,2.1,8.8,52,0.00,CLR,,0.00,747.0,WeatherDisplay:10.37,2013-09-10 17:57:00,
2013-09-10 13:02:00,87.6,67.8,29.87,SSW,194,4.7,9.2,52,0.00,CLR,,0.00,747.0,WeatherDisplay:10.37,2013-09-10 18:02:00,
2013-09-10 13:07:00,88.0,67.6,29.87,South,169,0.9,7.7,51,0.00,CLR,,0.00,745.0,WeatherDisplay:10.37,2013-09-10 18:07:00,
2013-09-10 13:12:00,88.0,67.0,29.87,South,172,2.0,8.1,50,0.00,CLR,,0.00,747.0,WeatherDisplay:10.37,2013-09-10 18:12:00,
2013-09-10 13:17:00,88.2,68.4,29.87,South,190,1.5,5.8,52,0.00,CLR,,0.00,738.0,WeatherDisplay:10.37,2013-09-10 18:17:00,
2013-09-10 13:22:00,89.0,67.4,29.87,SSW,198,2.5,6.9,49,0.00,BKN,,0.00,738.0,WeatherDisplay:10.37,2013-09-10 18:22:00,
2013-09-10 13:27:00,89.9,68.8,29.87,SSE,163,0.0,0.0,50,0.00,BKN,,0.00,733.0,WeatherDisplay:10.37,2013-09-10 18:27:00,
2013-09-10 13:32:00,89.7,68.0,29.87,SSW,196,1.0,6.6,49,0.00,BKN,,0.00,733.0,WeatherDisplay:10.37,2013-09-10 18:32:00,
2013-09-10 13:37:00,89.3,66.4,29.87,SW,215,3.9,9.2,47,0.00,BKN,,0.00,721.0,WeatherDisplay:10.37,2013-09-10 18:37:00,
2013-09-10 13:42:00,89.0,66.2,29.87,West,262,2.7,6.6,47,0.00,SCT,,0.00,714.0,WeatherDisplay:10.37,2013-09-10 18:42:00,
2013-09-10 13:47:00,89.0,66.2,29.87,SW,231,1.0,4.6,47,0.00,SCT,,0.00,722.0,WeatherDisplay:10.37,2013-09-10 18:47:00,
2013-09-10 13:52:00,89.5,67.2,29.87,SSW,192,3.8,6.6,48,0.00,SCT,,0.00,714.0,WeatherDisplay:10.37,2013-09-10 18:52:00,
2013-09-10 13:57:00,89.5,66.6,29.87,SW,228,4.0,5.8,47,0.00,SCT,,0.00,710.0,WeatherDisplay:10.37,2013-09-10 18:57:00,
2013-09-10 14:02:00,89.3,66.4,29.87,South,171,3.5,12.7,47,0.00,CLR,,0.00,708.0,WeatherDisplay:10.37,2013-09-10 19:02:00,
2013-09-10 14:07:00,89.9,67.0,29.87,South,188,1.7,5.8,47,0.00,CLR,,0.00,700.0,WeatherDisplay:10.37,2013-09-10 19:07:00,
2013-09-10 14:12:00,89.7,64.9,29.87,South,178,5.4,9.9,44,0.00,CLR,,0.00,694.0,WeatherDisplay:10.37,2013-09-10 19:12:00,
2013-09-10 14:17:00,89.7,64.9,29.87,South,180,6.4,13.2,44,0.00,CLR,,0.00,691.0,WeatherDisplay:10.37,2013-09-10 19:17:00,
2013-09-10 14:22:00,89.7,64.2,29.87,SSW,202,3.1,8.1,43,0.00,SCT,,0.00,684.0,WeatherDisplay:10.37,2013-09-10 19:22:00,
2013-09-10 14:27:00,90.1,65.2,29.87,WSW,252,3.3,8.1,44,0.00,SCT,,0.00,673.0,WeatherDisplay:10.37,2013-09-10 19:27:00,
2013-09-10 14:32:00,89.9,65.1,29.87,WSW,238,2.6,8.1,44,0.00,SCT,,0.00,664.0,WeatherDisplay:10.37,2013-09-10 19:32:00,
2013-09-10 14:37:00,90.3,64.8,29.87,South,171,4.3,8.8,43,0.00,SCT,,0.00,659.0,WeatherDisplay:10.37,2013-09-10 19:37:00,
2013-09-10 14:42:00,89.9,65.1,29.87,South,186,2.4,9.9,44,0.00,BKN,,0.00,649.0,WeatherDisplay:10.37,2013-09-10 19:42:00,
2013-09-10 14:47:00,89.9,65.1,29.87,SSW,211,3.6,12.7,44,0.00,BKN,,0.00,640.0,WeatherDisplay:10.37,2013-09-10 19:47:00,
2013-09-10 14:52:00,90.5,64.9,29.87,West,265,0.5,5.5,43,0.00,BKN,,0.00,631.0,WeatherDisplay:10.37,2013-09-10 19:52:00,
2013-09-10 14:57:00,90.3,64.8,29.87,West,271,0.9,6.9,43,0.00,BKN,,0.00,624.0,WeatherDisplay:10.37,2013-09-10 19:57:00,
2013-09-10 15:02:00,90.3,66.1,29.88,SW,225,2.6,6.9,45,0.00,SCT,,0.00,591.0,WeatherDisplay:10.37,2013-09-10 20:02:00,
2013-09-10 15:07:00,90.3,65.4,29.88,South,182,0.0,1.2,44,0.00,SCT,,0.00,601.0,WeatherDisplay:10.37,2013-09-10 20:07:00,
2013-09-10 15:12:00,90.7,65.1,29.88,NW,307,0.1,5.8,43,0.00,SCT,,0.00,592.0,WeatherDisplay:10.37,2013-09-10 20:12:00,
2013-09-10 15:17:00,90.5,64.3,29.87,West,281,4.6,7.7,42,0.00,SCT,,0.00,582.0,WeatherDisplay:10.37,2013-09-10 20:17:00,
2013-09-10 15:23:00,90.5,64.9,29.87,West,270,4.2,8.1,43,0.00,BKN,,0.00,564.0,WeatherDisplay:10.37,2013-09-10 20:23:00,
2013-09-10 15:28:00,90.5,64.3,29.87,SSW,213,3.2,6.9,42,0.00,BKN,,0.00,564.0,WeatherDisplay:10.37,2013-09-10 20:28:00,
2013-09-10 15:33:00,90.7,65.1,29.87,WSW,238,2.1,5.5,43,0.00,BKN,,0.00,548.0,WeatherDisplay:10.37,2013-09-10 20:33:00,
2013-09-10 15:38:00,91.0,65.4,29.87,SSW,194,3.6,5.8,43,0.00,BKN,,0.00,536.0,WeatherDisplay:10.37,2013-09-10 20:38:00,
2013-09-10 15:43:00,90.7,65.1,29.87,SW,219,1.5,5.5,43,0.00,BKN,,0.00,524.0,WeatherDisplay:10.37,2013-09-10 20:43:00,
2013-09-10 15:48:00,90.7,66.4,29.88,SSW,196,0.1,1.2,45,0.00,BKN,,0.00,515.0,WeatherDisplay:10.37,2013-09-10 20:48:00,
2013-09-10 15:53:00,91.0,66.1,29.88,South,186,0.5,4.6,44,0.00,BKN,,0.00,499.0,WeatherDisplay:10.37,2013-09-10 20:53:00,
2013-09-10 15:58:00,90.7,65.1,29.88,South,175,1.6,4.6,43,0.00,BKN,,0.00,482.0,WeatherDisplay:10.37,2013-09-10 20:58:00,
2013-09-10 16:03:00,90.5,65.6,29.88,South,180,3.6,5.8,44,0.00,BKN,,0.00,469.0,WeatherDisplay:10.37,2013-09-10 21:03:00,
2013-09-10 16:08:00,90.7,65.8,29.88,SW,227,0.6,3.5,44,0.00,BKN,,0.00,452.0,WeatherDisplay:10.37,2013-09-10 21:08:00,
2013-09-10 16:13:00,90.3,65.4,29.88,SSW,192,0.6,6.9,44,0.00,SCT,,0.00,443.0,WeatherDisplay:10.37,2013-09-10 21:13:00,
2013-09-10 16:18:00,90.1,65.2,29.88,WSW,244,0.7,3.5,44,0.00,SCT,,0.00,432.0,WeatherDisplay:10.37,2013-09-10 21:18:00,
2013-09-10 16:23:00,89.7,65.5,29.88,South,189,3.1,6.9,45,0.00,SCT,,0.00,415.0,WeatherDisplay:10.37,2013-09-10 21:23:00,
2013-09-10 16:28:00,89.7,65.5,29.88,SE,146,1.8,5.8,45,0.00,SCT,,0.00,410.0,WeatherDisplay:10.37,2013-09-10 21:28:00,
2013-09-10 16:33:00,89.9,66.3,29.88,SW,231,0.0,1.2,46,0.00,SCT,,0.00,392.0,WeatherDisplay:10.37,2013-09-10 21:33:00,
2013-09-10 16:38:00,90.1,65.9,29.88,SSW,211,2.7,8.1,45,0.00,SCT,,0.00,378.0,WeatherDisplay:10.37,2013-09-10 21:38:00,
2013-09-10 16:43:00,90.1,65.9,29.88,SSW,206,1.1,5.8,45,0.00,BKN,,0.00,364.0,WeatherDisplay:10.37,2013-09-10 21:43:00,
2013-09-10 16:48:00,89.9,66.3,29.87,WSW,255,0.9,4.6,46,0.00,BKN,,0.00,357.0,WeatherDisplay:10.37,2013-09-10 21:48:00,
2013-09-10 16:53:00,90.1,65.9,29.87,NW,313,2.8,6.9,45,0.00,BKN,,0.00,339.0,WeatherDisplay:10.37,2013-09-10 21:53:00,
2013-09-10 16:58:00,89.9,66.3,29.87,SSE,159,0.0,1.1,46,0.00,BKN,,0.00,322.0,WeatherDisplay:10.37,2013-09-10 21:58:00,
2013-09-10 17:03:00,89.9,66.3,29.87,SSW,202,0.2,8.1,46,0.00,BKN,,0.00,318.0,WeatherDisplay:10.37,2013-09-10 22:03:00,
2013-09-10 17:08:00,89.9,66.3,29.87,West,265,0.8,4.6,46,0.00,BKN,,0.00,302.0,WeatherDisplay:10.37,2013-09-10 22:08:00,
2013-09-10 17:13:00,89.9,67.6,29.87,WNW,288,0.0,0.0,48,0.00,BKN,,0.00,279.0,WeatherDisplay:10.37,2013-09-10 22:13:00,
2013-09-10 17:18:00,89.7,66.8,29.87,WSW,256,0.0,1.2,47,0.00,BKN,,0.00,265.0,WeatherDisplay:10.37,2013-09-10 22:18:00,
2013-09-10 17:23:00,89.7,67.4,29.87,WSW,255,1.9,4.6,48,0.00,SCT,,0.00,244.0,WeatherDisplay:10.37,2013-09-10 22:23:00,
2013-09-10 17:28:00,89.5,66.6,29.87,WSW,238,0.8,3.5,47,0.00,SCT,,0.00,241.0,WeatherDisplay:10.37,2013-09-10 22:28:00,
2013-09-10 17:33:00,89.3,67.0,29.87,WNW,302,2.3,10.4,48,0.00,SCT,,0.00,102.0,WeatherDisplay:10.37,2013-09-10 22:33:00,
2013-09-10 17:38:00,88.8,67.2,29.87,SSW,198,0.0,1.2,49,0.00,SCT,,0.00,118.0,WeatherDisplay:10.37,2013-09-10 22:38:00,
2013-09-10 17:43:00,88.2,66.6,29.87,West,279,1.8,5.5,49,0.00,SCT,,0.00,86.0,WeatherDisplay:10.37,2013-09-10 22:43:00,
2013-09-10 17:48:00,88.0,66.4,29.87,WNW,292,0.0,1.2,49,0.00,SCT,,0.00,79.0,WeatherDisplay:10.37,2013-09-10 22:48:00,
2013-09-10 17:53:00,87.8,66.8,29.87,WSW,257,1.3,6.9,50,0.00,SCT,,0.00,56.0,WeatherDisplay:10.37,2013-09-10 22:53:00,
2013-09-10 17:58:00,87.6,67.2,29.87,NW,309,0.1,1.1,51,0.00,SCT,,0.00,49.0,WeatherDisplay:10.37,2013-09-10 22:58:00,
2013-09-10 18:03:00,87.2,67.4,29.87,WSW,246,0.4,4.6,52,0.00,SCT,,0.00,77.0,WeatherDisplay:10.37,2013-09-10 23:03:00,
2013-09-10 18:08:00,87.0,67.8,29.87,NW,316,1.1,4.4,53,0.00,SCT,,0.00,74.0,WeatherDisplay:10.37,2013-09-10 23:08:00,
2013-09-10 18:13:00,86.7,67.0,29.87,WNW,296,0.7,2.2,52,0.00,SCT,,0.00,58.0,WeatherDisplay:10.37,2013-09-10 23:13:00,
2013-09-10 18:18:00,86.5,67.3,29.87,NW,311,0.0,3.5,53,0.00,SCT,,0.00,53.0,WeatherDisplay:10.37,2013-09-10 23:18:00,
2013-09-10 18:23:00,86.3,67.7,29.87,WSW,250,0.0,0.0,54,0.00,BKN,,0.00,65.0,WeatherDisplay:10.37,2013-09-10 23:23:00,
2013-09-10 18:28:00,86.1,67.0,29.87,West,275,0.1,1.2,53,0.00,BKN,,0.00,54.0,WeatherDisplay:10.37,2013-09-10 23:28:00,
2013-09-10 18:33:00,86.1,67.0,29.87,West,271,0.1,1.2,53,0.00,BKN,,0.00,49.0,WeatherDisplay:10.37,2013-09-10 23:33:00,
2013-09-10 18:38:00,85.9,66.2,29.87,NW,315,1.5,6.9,52,0.00,BKN,,0.00,30.0,WeatherDisplay:10.37,2013-09-10 23:38:00,
2013-09-10 18:43:00,85.9,66.8,29.87,NW,315,0.0,0.0,53,0.00,BKN,,0.00,26.0,WeatherDisplay:10.37,2013-09-10 23:43:00,
2013-09-10 18:48:00,85.5,67.0,29.87,WNW,292,0.0,0.0,54,0.00,BKN,,0.00,16.0,WeatherDisplay:10.37,2013-09-10 23:48:00,
2013-09-10 18:53:00,85.3,66.8,29.87,NW,304,0.4,5.8,54,0.00,BKN,,0.00,11.0,WeatherDisplay:10.37,2013-09-10 23:53:00,
2013-09-10 18:58:00,85.3,66.8,29.87,SSE,155,0.0,1.1,54,0.00,BKN,,0.00,7.0,WeatherDisplay:10.37,2013-09-10 23:58:00,
2013-09-10 19:03:00,85.1,66.6,29.87,SSE,150,0.0,1.2,54,0.00,SCT,,0.00,5.0,WeatherDisplay:10.37,2013-09-11 00:03:00,
2013-09-10 19:08:00,85.1,66.6,29.87,South,176,0.0,1.2,54,0.00,SCT,,0.00,0.0,WeatherDisplay:10.37,2013-09-11 00:08:00,
2013-09-10 19:13:00,84.9,66.9,29.87,South,176,0.0,0.0,55,0.00,SCT,,0.00,0.0,WeatherDisplay:10.37,2013-09-11 00:13:00,
2013-09-10 19:18:00,84.7,67.3,29.88,South,176,0.0,0.0,56,0.00,SCT,,0.00,0.0,WeatherDisplay:10.37,2013-09-11 00:18:00,
2013-09-10 19:23:00,84.5,67.1,29.88,SW,235,0.0,3.5,56,0.00,SCT,,0.00,0.0,WeatherDisplay:10.37,2013-09-11 00:23:00,
2013-09-10 19:28:00,84.3,66.9,29.88,SW,234,0.0,0.0,56,0.00,SCT,,0.00,0.0,WeatherDisplay:10.37,2013-09-11 00:28:00,
2013-09-10 19:33:00,84.1,66.7,29.88,WSW,253,0.0,0.0,56,0.00,SCT,,0.00,0.0,WeatherDisplay:10.37,2013-09-11 00:33:00,
2013-09-10 19:38:00,84.0,67.1,29.88,NNE,15,1.2,7.7,57,0.00,SCT,,0.00,0.0,WeatherDisplay:10.37,2013-09-11 00:38:00,
2013-09-10 19:43:00,83.8,67.4,29.88,NNW,337,0.9,3.5,58,0.00,SCT,,0.00,0.0,WeatherDisplay:10.37,2013-09-11 00:43:00,
2013-09-10 19:48:00,83.4,67.6,29.89,NW,319,2.4,9.2,59,0.00,SCT,,0.00,0.0,WeatherDisplay:10.37,2013-09-11 00:48:00,
2013-09-10 19:53:00,83.0,67.7,29.89,NW,324,0.0,1.2,60,0.00,SCT,,0.00,0.0,WeatherDisplay:10.37,2013-09-11 00:53:00,
2013-09-10 19:58:00,82.8,68.0,29.89,NNW,346,0.8,3.5,61,0.00,SCT,,0.00,0.0,WeatherDisplay:10.37,2013-09-11 00:58:00,
2013-09-10 20:03:00,82.2,66.4,29.90,North,350,0.6,3.5,59,0.00,SCT,,0.00,0.0,WeatherDisplay:10.37,2013-09-11 01:03:00,
2013-09-10 20:08:00,81.8,66.1,29.90,NNW,333,0.0,0.0,59,0.00,SCT,,0.00,0.0,WeatherDisplay:10.37,2013-09-11 01:08:00,
2013-09-10 20:13:00,81.6,65.9,29.90,WNW,284,0.0,1.2,59,0.00,SCT,,0.00,0.0,WeatherDisplay:10.37,2013-09-11 01:13:00,
2013-09-10 20:18:00,81.6,65.9,29.90,WNW,286,0.0,0.0,59,0.00,SCT,,0.00,0.0,WeatherDisplay:10.37,2013-09-11 01:18:00,
2013-09-10 20:23:00,81.4,65.7,29.90,WNW,286,0.0,0.0,59,0.00,BKN,,0.00,0.0,WeatherDisplay:10.37,2013-09-11 01:23:00,
2013-09-10 20:28:00,81.1,65.9,29.90,WNW,286,0.0,0.0,60,0.00,BKN,,0.00,0.0,WeatherDisplay:10.37,2013-09-11 01:28:00,
2013-09-10 20:33:00,80.9,66.2,29.91,NNW,333,0.0,0.0,61,0.00,BKN,,0.00,0.0,WeatherDisplay:10.37,2013-09-11 01:33:00,
2013-09-10 20:38:00,80.5,66.3,29.91,NNW,333,0.0,0.0,62,0.00,BKN,,0.00,0.0,WeatherDisplay:10.37,2013-09-11 01:38:00,
2013-09-10 20:43:00,80.3,66.1,29.91,NNW,333,0.0,0.0,62,0.00,OVC,,0.00,0.0,WeatherDisplay:10.37,2013-09-11 01:43:00,
2013-09-10 20:48:00,79.9,65.7,29.92,NNW,329,0.0,0.0,62,0.00,OVC,,0.00,0.0,WeatherDisplay:10.37,2013-09-11 01:48:00,
2013-09-10 20:53:00,79.8,65.6,29.92,NNW,328,0.0,0.0,62,0.00,OVC,,0.00,0.0,WeatherDisplay:10.37,2013-09-11 01:53:00,
2013-09-10 20:58:00,79.6,65.4,29.92,NNW,328,0.0,0.0,62,0.00,OVC,,0.00,0.0,WeatherDisplay:10.37,2013-09-11 01:58:00,
2013-09-10 21:03:00,79.4,65.2,29.92,NNW,328,0.0,0.0,62,0.00,OVC,,0.00,0.0,WeatherDisplay:10.37,2013-09-11 02:03:00,
2013-09-10 21:08:00,79.4,65.7,29.92,NNW,328,0.0,0.0,63,0.00,OVC,,0.00,0.0,WeatherDisplay:10.37,2013-09-11 02:08:00,
2013-09-10 21:13:00,79.2,65.5,29.92,NNW,328,0.0,0.0,63,0.00,OVC,,0.00,0.0,WeatherDisplay:10.37,2013-09-11 02:13:00,
2013-09-10 21:18:00,79.0,65.3,29.93,NNW,328,0.0,0.0,63,0.00,OVC,,0.00,0.0,WeatherDisplay:10.37,2013-09-11 02:18:00,
2013-09-10 21:23:00,78.8,65.6,29.93,NNW,328,0.0,0.0,64,0.00,OVC,,0.00,0.0,WeatherDisplay:10.37,2013-09-11 02:23:00,
2013-09-10 21:28:00,78.6,65.8,29.93,NNW,328,0.0,0.0,65,0.00,OVC,,0.00,0.0,WeatherDisplay:10.37,2013-09-11 02:28:00,
2013-09-10 21:33:00,78.3,65.1,29.93,NNW,329,0.1,1.2,64,0.00,OVC,,0.00,0.0,WeatherDisplay:10.37,2013-09-11 02:33:00,
2013-09-10 21:38:00,78.3,65.1,29.93,NW,311,0.5,2.2,64,0.00,OVC,,0.00,0.0,WeatherDisplay:10.37,2013-09-11 02:38:00,
2013-09-10 21:43:00,78.1,64.9,29.93,WNW,296,0.2,1.2,64,0.00,OVC,,0.00,0.0,WeatherDisplay:10.37,2013-09-11 02:43:00,
2013-09-10 21:48:00,77.9,64.7,29.94,WNW,301,0.0,1.2,64,0.00,OVC,,0.00,0.0,WeatherDisplay:10.37,2013-09-11 02:48:00,
2013-09-10 21:53:00,77.6,64.5,29.94,NW,318,0.0,4.6,64,0.00,OVC,,0.00,0.0,WeatherDisplay:10.37,2013-09-11 02:53:00,
2013-09-10 21:58:00,77.4,63.8,29.94,NW,313,0.0,0.0,63,0.00,OVC,,0.00,0.0,WeatherDisplay:10.37,2013-09-11 02:58:00,
2013-09-10 22:03:00,77.2,63.6,29.94,NW,313,0.0,0.0,63,0.00,BKN,,0.00,0.0,WeatherDisplay:10.37,2013-09-11 03:03:00,
2013-09-10 22:08:00,77.2,64.1,29.94,WNW,298,0.0,1.2,64,0.00,BKN,,0.00,0.0,WeatherDisplay:10.37,2013-09-11 03:08:00,
2013-09-10 22:13:00,77.0,63.9,29.94,WNW,298,0.0,0.0,64,0.00,BKN,,0.00,0.0,WeatherDisplay:10.37,2013-09-11 03:13:00,
2013-09-10 22:18:00,77.0,63.9,29.93,WNW,298,0.0,0.0,64,0.00,BKN,,0.00,0.0,WeatherDisplay:10.37,2013-09-11 03:18:00,
2013-09-10 22:23:00,76.8,63.7,29.93,WNW,298,0.0,0.0,64,0.00,SCT,,0.00,0.0,WeatherDisplay:10.37,2013-09-11 03:23:00,
2013-09-10 22:28:00,76.8,63.7,29.93,WNW,298,0.0,0.0,64,0.00,SCT,,0.00,0.0,WeatherDisplay:10.37,2013-09-11 03:28:00,
2013-09-10 22:33:00,76.7,63.2,29.93,WNW,298,0.0,0.0,63,0.00,SCT,,0.00,0.0,WeatherDisplay:10.37,2013-09-11 03:33:00,
2013-09-10 22:38:00,76.7,63.2,29.93,WNW,298,0.0,0.0,63,0.00,SCT,,0.00,0.0,WeatherDisplay:10.37,2013-09-11 03:38:00,
2013-09-10 22:43:00,76.7,63.2,29.93,WNW,298,0.0,0.0,63,0.00,CLR,,0.00,0.0,WeatherDisplay:10.37,2013-09-11 03:43:00,
2013-09-10 22:48:00,76.7,63.6,29.93,WNW,298,0.0,0.0,64,0.00,CLR,,0.00,0.0,WeatherDisplay:10.37,2013-09-11 03:48:00,
2013-09-10 22:53:00,76.7,63.6,29.93,WNW,298,0.0,0.0,64,0.00,CLR,,0.00,0.0,WeatherDisplay:10.37,2013-09-11 03:53:00,
2013-09-10 22:58:00,76.5,63.4,29.93,WNW,298,0.0,0.0,64,0.00,CLR,,0.00,0.0,WeatherDisplay:10.37,2013-09-11 03:58:00,
2013-09-10 23:01:00,76.5,63.4,29.93,WNW,298,0.0,0.0,64,0.00,CLR,,0.00,0.0,WeatherDisplay:10.37,2013-09-11 04:01:00,
2013-09-10 23:02:00,76.5,63.4,29.93,WNW,298,0.0,0.0,64,0.00,CLR,,0.00,0.0,WeatherDisplay:10.37,2013-09-11 04:02:00,
2013-09-10 23:04:00,76.5,63.9,29.93,WNW,298,0.0,0.0,65,0.00,CLR,,0.00,0.0,WeatherDisplay:10.37,2013-09-11 04:04:00,
2013-09-10 23:07:00,76.5,64.3,29.93,WNW,298,0.0,0.0,66,0.00,CLR,,0.00,0.0,WeatherDisplay:10.37,2013-09-11 04:07:00,
2013-09-10 23:12:00,76.3,64.1,29.93,WNW,298,0.0,0.0,66,0.00,SCT,,0.00,0.0,WeatherDisplay:10.37,2013-09-11 04:12:00,
2013-09-10 23:17:00,76.1,63.9,29.94,WNW,298,0.0,0.0,66,0.00,SCT,,0.00,0.0,WeatherDisplay:10.37,2013-09-11 04:17:00,
2013-09-10 23:22:00,76.0,63.8,29.94,WNW,298,0.0,0.0,66,0.00,CLR,,0.00,0.0,WeatherDisplay:10.37,2013-09-11 04:22:00,
2013-09-10 23:27:00,75.8,63.2,29.94,WNW,298,0.0,0.0,65,0.00,CLR,,0.00,0.0,WeatherDisplay:10.37,2013-09-11 04:27:00,
2013-09-10 23:32:00,75.8,62.3,29.94,WNW,298,0.0,0.0,63,0.00,CLR,,0.00,0.0,WeatherDisplay:10.37,2013-09-11 04:32:00,
2013-09-10 23:37:00,75.8,62.3,29.94,WNW,298,0.0,0.0,63,0.00,CLR,,0.00,0.0,WeatherDisplay:10.37,2013-09-11 04:37:00,
2013-09-10 23:42:00,75.6,61.7,29.94,WNW,298,0.0,0.0,62,0.00,CLR,,0.00,0.0,WeatherDisplay:10.37,2013-09-11 04:42:00,
2013-09-10 23:47:00,75.6,61.7,29.94,WNW,298,0.0,0.0,62,0.00,CLR,,0.00,0.0,WeatherDisplay:10.37,2013-09-11 04:47:00,
2013-09-10 23:52:00,75.4,61.5,29.94,WNW,298,0.0,0.0,62,0.00,CLR,,0.00,0.0,WeatherDisplay:10.37,2013-09-11 04:52:00,
2013-09-10 23:57:00,75.3,61.8,29.94,WNW,298,0.0,0.0,63,0.00,CLR,,0.00,0.0,WeatherDisplay:10.37,2013-09-11 04:57:00,